54P/de Vico-Swift-NEAT (2009)

Japanese version
Home page
Updated on March 17, 2010

---------------------------------------------------------------------

* Profile

* Orbital Elements

Epoch 2009 Nov. 25.0 TT = JDT 2455160.5
T 2009 Nov. 28.50371 TT                                 MPC
q   2.1720037            (2000.0)            P               Q
n   0.13365566     Peri.    1.91046     +0.99990749     -0.01343614
a   3.7885918      Node   358.85297     +0.01065132     +0.87023588
e   0.4266989      Incl.    6.06834     +0.00845917     +0.49245200
P   7.37

* Magnitudes Graph

        m1 = 13.0 + 5 log d + 15 log r

---------------------------------------------------------------------

The orbital elements are published on M.P.E.C. 2009-Q12.
The magnitudes graphs are made with Comet for Windows.

---------------------------------------------------------------------

Copyright(C) Seiichi Yoshida (comet@aerith.net). All rights reserved.